sat.trackr.live / text

‹ back to catalog

STARLINK-2166

NORAD 48558 · 2021-041F

PAYLOAD ACTIVE UNKNOWN

§ Identity

Operator
Country
US
Launch date
2021-05-15
Launch site
AFETR
Launch vehicle
Mass (kg)
RCS (m²)

Purposes: comms

External: N2YO · Heavens-Above · Gunter

§ Orbital elements

Epoch: 2026-05-25T02:57:37.192896Z

Period
94.01 min
Inclination
53.1604°
Eccentricity
0.0001185
Mean motion
15.31701603 rev/d
Perigee alt
469.9 km
Apogee alt
471.5 km
Semi-major
6,848.9 km
B*
1.3973e-5
RAAN
131.3500°
Arg perigee
96.2509°
Mean anomaly
263.8627°
Rev number
27,612

§ Raw data

STARLINK-21661 48558U 21041F   26145.12334714  .00000069  00000+0  13973-4 0  99922 48558  53.1604 131.3500 0001185  96.2509 263.8627 15.31701603276129

JSON: /api/v1/satellites/48558 · /tle

For live sub-satellite position, see the globe view (requires WebGL).

§ Visibility from observer

Set your observer location to see the next 7 days of passes ≥ 10°. The values pass through the URL so the page stays shareable.

No JS? Fill the form by hand. The geolocation button needs JavaScript.